�������l�o���
Date,Time,MP-1(��Sv/h),MP-2(��Sv/h),MP-3(��Sv/h),MP-4(��Sv/h),MP-5(��Sv/h),MP-6(��Sv/h),MP-7(��Sv/h),MP-8(��Sv/h),����,����(m/s),���J
2017/10/01,00:00,0.933,1.483,0.961,1.772,1.221,0.506,0.932,0.858,���k��,6.1,��
2017/10/01,00:10,0.932,1.488,0.961,1.773,1.217,0.509,0.933,0.858,���k��,6.1,��
2017/10/01,00:20,0.932,1.486,0.959,1.773,1.220,0.507,0.932,0.859,��,6.1,��
2017/10/01,00:30,0.934,1.483,0.961,1.772,1.217,0.507,0.932,0.857,��,6.0,��
2017/10/01,00:40,0.935,1.486,0.960,1.770,1.220,0.507,0.930,0.858,��,5.6,��
2017/10/01,00:50,0.933,1.485,0.960,1.773,1.220,0.509,0.932,0.861,��,6.5,��
2017/10/01,01:00,0.934,1.484,0.962,1.773,1.221,0.509,0.931,0.859,��,6.0,��
2017/10/01,01:10,0.932,1.483,0.961,1.770,1.219,0.507,0.932,0.860,���k��,6.0,��
2017/10/01,01:20,0.933,1.485,0.960,1.768,1.218,0.507,0.931,0.859,���k��,4.9,��
2017/10/01,01:30,0.932,1.484,0.960,1.772,1.219,0.508,0.931,0.859,��,5.1,��
2017/10/01,01:40,0.931,1.485,0.959,1.771,1.218,0.507,0.931,0.859,��,4.8,��
2017/10/01,01:50,0.933,1.487,0.961,1.769,1.219,0.508,0.931,0.858,��,4.5,��
2017/10/01,02:00,0.933,1.485,0.960,1.770,1.218,0.506,0.933,0.858,���k��,5.0,��
2017/10/01,02:10,0.934,1.483,0.958,1.767,1.221,0.506,0.930,0.859,���k��,5.7,��
2017/10/01,02:20,0.933,1.484,0.959,1.770,1.218,0.507,0.932,0.859,���k��,5.6,��
2017/10/01,02:30,0.931,1.484,0.959,1.773,1.218,0.506,0.932,0.860,���k��,5.4,��
2017/10/01,02:40,0.933,1.483,0.962,1.770,1.215,0.507,0.931,0.858,���k��,5.4,��
2017/10/01,02:50,0.932,1.480,0.961,1.770,1.219,0.506,0.930,0.858,���k��,6.0,��
2017/10/01,03:00,0.930,1.484,0.959,1.769,1.217,0.506,0.931,0.859,���k��,5.6,��
2017/10/01,03:10,0.931,1.484,0.960,1.773,1.219,0.505,0.932,0.856,���k��,5.0,��
2017/10/01,03:20,0.930,1.484,0.959,1.771,1.220,0.506,0.932,0.858,���k��,4.5,��
2017/10/01,03:30,0.930,1.483,0.960,1.771,1.218,0.505,0.931,0.858,�k��,5.0,��
2017/10/01,03:40,0.930,1.481,0.960,1.770,1.216,0.507,0.930,0.858,�k��,5.7,��
2017/10/01,03:50,0.932,1.484,0.960,1.770,1.216,0.507,0.928,0.859,���k��,4.8,��
2017/10/01,04:00,0.932,1.485,0.960,1.772,1.218,0.507,0.929,0.857,���k��,4.1,��
2017/10/01,04:10,0.931,1.484,0.960,1.772,1.218,0.506,0.930,0.858,���k��,4.2,��
2017/10/01,04:20,0.930,1.481,0.959,1.769,1.217,0.506,0.930,0.857,��,4.7,��
2017/10/01,04:30,0.931,1.483,0.958,1.770,1.220,0.505,0.931,0.858,��,5.1,��
2017/10/01,04:40,0.931,1.484,0.961,1.770,1.217,0.507,0.931,0.857,��,3.5,��
2017/10/01,04:50,0.931,1.483,0.960,1.769,1.218,0.507,0.930,0.857,��,4.1,��
2017/10/01,05:00,0.931,1.485,0.958,1.770,1.217,0.506,0.930,0.859,��,4.0,��
2017/10/01,05:10,0.932,1.483,0.959,1.771,1.217,0.507,0.929,0.857,��,4.3,��
2017/10/01,05:20,0.931,1.481,0.959,1.771,1.218,0.505,0.930,0.857,��,4.8,��
2017/10/01,05:30,0.930,1.483,0.961,1.770,1.220,0.505,0.932,0.859,��,4.7,��
2017/10/01,05:40,0.932,1.483,0.961,1.769,1.218,0.505,0.931,0.859,��,4.2,��
2017/10/01,05:50,0.929,1.484,0.957,1.769,1.219,0.506,0.931,0.858,��,5.1,��
2017/10/01,06:00,0.929,1.484,0.958,1.769,1.216,0.506,0.931,0.858,��,4.5,��
2017/10/01,06:10,0.931,1.486,0.958,1.771,1.217,0.506,0.932,0.857,��,5.3,��
2017/10/01,06:20,0.932,1.483,0.958,1.769,1.216,0.506,0.930,0.857,���쐼,5.6,��
2017/10/01,06:30,0.930,1.483,0.959,1.772,1.217,0.506,0.931,0.858,��,3.2,��
2017/10/01,06:40,0.929,1.484,0.961,1.770,1.217,0.507,0.929,0.860,���쐼,3.0,��
2017/10/01,06:50,0.932,1.486,0.961,1.773,1.219,0.506,0.931,0.860,��,3.5,��
2017/10/01,07:00,0.932,1.486,0.958,1.773,1.219,0.506,0.929,0.858,���쐼,4.0,��
2017/10/01,07:10,0.931,1.486,0.963,1.769,1.218,0.506,0.931,0.857,���쐼,3.9,��
2017/10/01,07:20,0.932,1.487,0.960,1.770,1.221,0.508,0.932,0.858,��,3.9,��
2017/10/01,07:30,0.933,1.487,0.962,1.770,1.217,0.507,0.933,0.859,���쐼,4.3,��
2017/10/01,07:40,0.930,1.484,0.961,1.771,1.218,0.506,0.931,0.857,���쐼,3.4,��
2017/10/01,07:50,0.934,1.487,0.960,1.775,1.221,0.507,0.933,0.860,���쐼,1.7,��
2017/10/01,08:00,0.934,1.486,0.963,1.772,1.222,0.508,0.934,0.860,�k�k��,1.1,��
2017/10/01,08:10,0.936,1.485,0.962,1.775,1.222,0.508,0.932,0.862,��,1.1,��
2017/10/01,08:20,0.934,1.486,0.963,1.773,1.221,0.507,0.930,0.860,��,1.7,��
2017/10/01,08:30,0.930,1.488,0.965,1.773,1.220,0.507,0.930,0.860,�쐼,1.4,��
2017/10/01,08:40,0.932,1.487,0.963,1.775,1.224,0.507,0.932,0.859,���쐼,1.4,��
2017/10/01,08:50,0.932,1.487,0.964,1.777,1.222,0.509,0.930,0.860,�쓌,0.8,��
2017/10/01,09:00,0.934,1.487,0.963,1.777,1.221,0.508,0.931,0.859,�쓌,1.7,��
2017/10/01,09:10,0.933,1.489,0.961,1.775,1.219,0.509,0.931,0.860,��쓌,2.0,��
2017/10/01,09:20,0.933,1.490,0.963,1.775,1.221,0.507,0.932,0.858,�쓌,2.3,��
2017/10/01,09:30,0.933,1.488,0.962,1.778,1.220,0.508,0.932,0.857,�쓌,3.0,��
2017/10/01,09:40,0.935,1.488,0.963,1.775,1.222,0.506,0.932,0.857,��쓌,2.2,��
2017/10/01,09:50,0.935,1.488,0.959,1.779,1.223,0.506,0.931,0.857,���쓌,1.5,��
2017/10/01,10:00,0.938,1.488,0.963,1.780,1.225,0.507,0.932,0.858,���쓌,1.7,��
2017/10/01,10:10,0.938,1.491,0.962,1.777,1.223,0.507,0.931,0.857,�쓌,3.0,��
2017/10/01,10:20,0.936,1.490,0.962,1.778,1.223,0.507,0.933,0.858,���쓌,2.9,��
2017/10/01,10:30,0.938,1.493,0.962,1.778,1.226,0.505,0.933,0.858,�쓌,4.8,��
2017/10/01,10:40,0.938,1.493,0.963,1.781,1.225,0.507,0.932,0.858,�쓌,5.6,��
2017/10/01,10:50,0.935,1.492,0.963,1.781,1.223,0.506,0.932,0.857,��쓌,6.2,��
2017/10/01,11:00,0.937,1.495,0.963,1.780,1.227,0.506,0.931,0.857,��쓌,7.2,��
2017/10/01,11:10,0.938,1.494,0.962,1.780,1.225,0.508,0.930,0.858,��쓌,8.1,��
2017/10/01,11:20,0.937,1.495,0.965,1.782,1.224,0.508,0.934,0.857,��쓌,7.0,��
2017/10/01,11:30,0.938,1.496,0.964,1.779,1.226,0.507,0.934,0.859,��쓌,7.2,��
2017/10/01,11:40,0.940,1.496,0.965,1.781,1.226,0.509,0.932,0.858,��쓌,6.4,��
2017/10/01,11:50,0.937,1.496,0.963,1.779,1.231,0.509,0.932,0.860,��쓌,6.8,��
2017/10/01,12:00,0.939,1.495,0.965,1.778,1.225,0.508,0.933,0.859,��쓌,7.8,��
2017/10/01,12:10,0.939,1.495,0.966,1.782,1.228,0.508,0.933,0.860,��쓌,7.5,��
2017/10/01,12:20,0.941,1.495,0.966,1.779,1.228,0.509,0.933,0.859,��쓌,8.0,��
2017/10/01,12:30,0.939,1.500,0.966,1.781,1.230,0.509,0.933,0.858,��쓌,6.6,��
2017/10/01,12:40,0.942,1.499,0.967,1.782,1.230,0.508,0.934,0.858,��쓌,8.2,��
2017/10/01,12:50,0.940,1.499,0.967,1.782,1.232,0.510,0.934,0.860,��쓌,9.1,��
2017/10/01,13:00,0.941,1.500,0.965,1.782,1.232,0.511,0.935,0.860,��쓌,9.1,��
2017/10/01,13:10,0.939,1.498,0.968,1.782,1.230,0.509,0.931,0.861,��쓌,9.6,��
2017/10/01,13:20,0.939,1.499,0.968,1.781,1.234,0.509,0.933,0.857,��쓌,9.3,��
2017/10/01,13:30,0.941,1.500,0.967,1.781,1.230,0.510,0.934,0.859,��쓌,9.6,��
2017/10/01,13:40,0.942,1.499,0.966,1.780,1.230,0.510,0.934,0.858,��쓌,9.9,��
2017/10/01,13:50,0.940,1.502,0.968,1.785,1.231,0.510,0.933,0.858,��,8.4,��
2017/10/01,14:00,0.940,1.501,0.968,1.783,1.232,0.510,0.934,0.859,��쓌,10.2,��
2017/10/01,14:10,0.940,1.502,0.969,1.784,1.231,0.512,0.934,0.859,��쓌,10.4,��
2017/10/01,14:20,0.944,1.501,0.968,1.780,1.232,0.510,0.935,0.859,��쓌,10.8,��
2017/10/01,14:30,0.940,1.501,0.970,1.782,1.233,0.510,0.935,0.858,��쓌,11.6,��
2017/10/01,14:40,0.940,1.502,0.967,1.781,1.233,0.510,0.933,0.860,��쓌,10.7,��
2017/10/01,14:50,0.941,1.500,0.968,1.783,1.232,0.511,0.935,0.858,��쓌,11.8,��
2017/10/01,15:00,0.942,1.501,0.968,1.781,1.233,0.510,0.935,0.859,��쓌,10.4,��
2017/10/01,15:10,0.943,1.501,0.970,1.783,1.233,0.511,0.935,0.859,��쓌,10.2,��
2017/10/01,15:20,0.940,1.502,0.967,1.782,1.232,0.508,0.935,0.859,��,9.0,��
2017/10/01,15:30,0.942,1.503,0.969,1.780,1.234,0.510,0.933,0.858,��쓌,10.5,��
2017/10/01,15:40,0.942,1.504,0.970,1.784,1.232,0.510,0.933,0.858,��쓌,12.1,��
2017/10/01,15:50,0.942,1.503,0.968,1.784,1.234,0.510,0.933,0.861,��,8.9,��
2017/10/01,16:00,0.942,1.505,0.969,1.783,1.235,0.510,0.934,0.858,��,11.1,��
2017/10/01,16:10,0.941,1.502,0.967,1.784,1.233,0.510,0.934,0.858,��,9.8,��
2017/10/01,16:20,0.942,1.505,0.968,1.783,1.232,0.509,0.932,0.860,��,9.7,��
2017/10/01,16:30,0.942,1.501,0.966,1.786,1.232,0.510,0.934,0.860,��,8.9,��
2017/10/01,16:40,0.942,1.503,0.968,1.785,1.234,0.510,0.934,0.859,��,10.7,��
2017/10/01,16:50,0.940,1.503,0.967,1.784,1.234,0.510,0.933,0.858,��,8.8,��
2017/10/01,17:00,0.939,1.502,0.969,1.787,1.232,0.511,0.932,0.861,��쐼,8.6,��
2017/10/01,17:10,0.941,1.499,0.970,1.784,1.234,0.509,0.934,0.859,��쐼,9.0,��
2017/10/01,17:20,0.942,1.500,0.967,1.784,1.234,0.509,0.934,0.861,��,8.6,��
2017/10/01,17:30,0.940,1.502,0.969,1.784,1.235,0.509,0.933,0.862,��,8.8,��
2017/10/01,17:40,0.940,1.501,0.970,1.783,1.234,0.510,0.935,0.861,��쐼,7.8,��
2017/10/01,17:50,0.939,1.502,0.970,1.784,1.235,0.510,0.931,0.862,��쐼,6.9,��
2017/10/01,18:00,0.941,1.503,0.970,1.783,1.236,0.511,0.934,0.862,��,7.1,��
2017/10/01,18:10,0.941,1.503,0.973,1.784,1.234,0.510,0.935,0.862,��쐼,6.8,��
2017/10/01,18:20,0.940,1.503,0.971,1.784,1.235,0.510,0.933,0.861,��쐼,6.9,��
2017/10/01,18:30,0.943,1.503,0.970,1.780,1.236,0.509,0.933,0.862,��,7.1,��
2017/10/01,18:40,0.943,1.501,0.972,1.785,1.235,0.510,0.935,0.862,��,7.2,��
2017/10/01,18:50,0.942,1.502,0.971,1.783,1.233,0.511,0.935,0.862,��,7.4,��
2017/10/01,19:00,0.941,1.503,0.973,1.783,1.237,0.509,0.936,0.860,��,7.9,��
2017/10/01,19:10,0.945,1.505,0.970,1.782,1.238,0.510,0.937,0.862,��쐼,7.5,��
2017/10/01,19:20,0.945,1.505,0.973,1.783,1.238,0.510,0.935,0.863,��쐼,8.0,��
2017/10/01,19:30,0.944,1.504,0.970,1.783,1.235,0.510,0.936,0.861,��쐼,8.1,��
2017/10/01,19:40,0.944,1.505,0.970,1.785,1.237,0.510,0.935,0.862,��쐼,8.6,��
2017/10/01,19:50,0.942,1.502,0.973,1.784,1.237,0.508,0.935,0.861,��쐼,7.8,��
2017/10/01,20:00,0.943,1.501,0.971,1.783,1.237,0.510,0.934,0.860,��쐼,7.5,��
2017/10/01,20:10,0.942,1.506,0.971,1.785,1.236,0.510,0.935,0.862,��,7.4,��
2017/10/01,20:20,0.944,1.503,0.971,1.784,1.237,0.511,0.934,0.861,��쐼,7.9,��
2017/10/01,20:30,0.942,1.503,0.970,1.782,1.235,0.512,0.932,0.860,��쐼,7.4,��
2017/10/01,20:40,0.945,1.502,0.971,1.782,1.235,0.509,0.934,0.861,��쐼,6.8,��
2017/10/01,20:50,0.944,1.502,0.971,1.783,1.236,0.510,0.935,0.859,��쐼,5.7,��
2017/10/01,21:00,0.944,1.501,0.971,1.781,1.237,0.511,0.935,0.861,��쐼,6.2,��
2017/10/01,21:10,0.944,1.504,0.971,1.786,1.236,0.510,0.937,0.862,��,6.3,��
2017/10/01,21:20,0.945,1.502,0.970,1.780,1.237,0.511,0.935,0.861,��쐼,8.1,��
2017/10/01,21:30,0.944,1.504,0.971,1.782,1.236,0.511,0.932,0.861,��쐼,8.0,��
2017/10/01,21:40,0.943,1.501,0.972,1.783,1.237,0.510,0.935,0.862,��쐼,8.2,��
2017/10/01,21:50,0.946,1.502,0.974,1.782,1.236,0.510,0.937,0.861,��쐼,8.5,��
2017/10/01,22:00,0.944,1.502,0.971,1.784,1.234,0.511,0.936,0.862,��쐼,8.0,��
2017/10/01,22:10,0.944,1.502,0.972,1.783,1.235,0.510,0.935,0.861,��,8.6,��
2017/10/01,22:20,0.945,1.503,0.972,1.782,1.237,0.511,0.934,0.862,��,9.8,��
2017/10/01,22:30,0.944,1.501,0.970,1.783,1.234,0.509,0.935,0.862,��,9.4,��
2017/10/01,22:40,0.944,1.506,0.973,1.784,1.236,0.509,0.936,0.859,��쐼,9.2,��
2017/10/01,22:50,0.944,1.501,0.971,1.785,1.237,0.509,0.935,0.862,��,9.0,��
2017/10/01,23:00,0.946,1.503,0.971,1.782,1.236,0.509,0.937,0.862,��쐼,9.1,��
2017/10/01,23:10,0.943,1.500,0.972,1.782,1.236,0.511,0.936,0.862,��,9.3,��
2017/10/01,23:20,0.945,1.501,0.972,1.781,1.235,0.511,0.936,0.862,��쐼,9.3,��
2017/10/01,23:30,0.942,1.502,0.971,1.783,1.237,0.510,0.936,0.861,��쐼,8.6,��
2017/10/01,23:40,0.945,1.501,0.973,1.781,1.235,0.511,0.935,0.861,��,8.3,��
2017/10/01,23:50,0.946,1.502,0.973,1.784,1.235,0.510,0.936,0.863,��,7.7,��
